Location: Stanford
(52.2833°N, 2.4333°W)
Time: 20:11:43
(UTC+00:00)

Meteor 2-1 Rocket - Pass Details

Date: 22 January 2021
Orbit: 827 x 910 km, 81.3° (Epoch: 27 February)

Event Time Altitude Azimuth Distance (km) Brightness Sun altitude
Rises 18:24:47 0° 346° (NNW) 3,424 7.4 -15.8°
Reaches altitude 10° 18:27:14 10° 346° (NNW) 2,474 6.7 -16.2°
Maximum altitude 18:32:50 85° 260° (W) 844 4.2 -17.0°
Drops below altitude 10° 18:38:20 10° 171° (S) 2,428 6.6 -17.8°
Sets 18:40:42 0° 171° (S) 3,355 7.3 -18.2°
